Time,TemperatureF,DewpointF,PressureIn,WindDirection,WindDirectionDegrees,WindSpeedMPH,WindSpeedGustMPH,Humidity,HourlyPrecipIn,Conditions,Clouds,dailyrainin,SoftwareType,DateUTC
2013-06-12 00:02:00,53.0,47.0,30.10,SW,231,6.0,11.0,79,0.00,,,0.00,,2013-06-12 07:02:00,
2013-06-12 00:12:00,53.0,47.0,30.10,SW,231,6.0,11.0,79,0.00,,,0.00,,2013-06-12 07:12:00,
2013-06-12 00:22:00,52.0,47.0,30.11,SE,138,4.0,10.0,82,0.00,,,0.00,,2013-06-12 07:22:00,
2013-06-12 00:33:00,52.0,47.0,30.11,SE,138,4.0,10.0,82,0.00,,,0.00,,2013-06-12 07:33:00,
2013-06-12 00:43:00,52.0,47.0,30.11,SE,138,4.0,10.0,82,0.00,,,0.00,,2013-06-12 07:43:00,
2013-06-12 00:53:00,52.0,47.0,30.11,SSE,165,4.0,11.0,84,0.00,,,0.00,,2013-06-12 07:53:00,
2013-06-12 01:02:00,52.0,47.0,30.11,SSE,165,4.0,11.0,84,0.00,,,0.00,,2013-06-12 08:02:00,
2013-06-12 01:12:00,52.0,47.0,30.11,SSE,165,4.0,11.0,84,0.00,,,0.00,,2013-06-12 08:12:00,
2013-06-12 01:22:00,51.0,47.0,30.12,SSE,148,5.0,9.0,85,0.00,,,0.00,,2013-06-12 08:22:00,
2013-06-12 01:33:00,51.0,47.0,30.12,SSE,148,5.0,9.0,85,0.00,,,0.00,,2013-06-12 08:33:00,
2013-06-12 01:43:00,51.0,47.0,30.12,SSE,148,5.0,9.0,85,0.00,,,0.00,,2013-06-12 08:43:00,
2013-06-12 01:53:00,51.0,47.0,30.12,SSE,160,5.0,12.0,86,0.00,,,0.00,,2013-06-12 08:53:00,
2013-06-12 02:01:00,51.0,47.0,30.12,SSE,160,5.0,12.0,86,0.00,,,0.00,,2013-06-12 09:01:00,
2013-06-12 02:11:00,51.0,47.0,30.12,SSE,160,5.0,12.0,86,0.00,,,0.00,,2013-06-12 09:11:00,
2013-06-12 02:22:00,52.0,48.0,30.12,SW,216,5.0,11.0,85,0.00,,,0.00,,2013-06-12 09:22:00,
2013-06-12 02:33:00,52.0,48.0,30.12,SW,216,5.0,11.0,85,0.00,,,0.00,,2013-06-12 09:33:00,
2013-06-12 02:43:00,52.0,48.0,30.12,SW,216,5.0,11.0,85,0.00,,,0.00,,2013-06-12 09:43:00,
2013-06-12 02:53:00,52.0,48.0,30.12,South,191,6.0,11.0,85,0.00,,,0.00,,2013-06-12 09:53:00,
2013-06-12 03:01:00,52.0,48.0,30.12,South,191,6.0,11.0,85,0.00,,,0.00,,2013-06-12 10:01:00,
2013-06-12 03:11:00,52.0,48.0,30.12,South,191,6.0,11.0,85,0.00,,,0.00,,2013-06-12 10:11:00,
2013-06-12 03:23:00,52.0,48.0,30.12,SSW,202,5.0,11.0,85,0.00,,,0.00,,2013-06-12 10:23:00,
2013-06-12 03:32:00,52.0,48.0,30.12,SSW,202,5.0,11.0,85,0.00,,,0.00,,2013-06-12 10:32:00,
2013-06-12 03:43:00,52.0,48.0,30.12,SSW,202,5.0,11.0,85,0.00,,,0.00,,2013-06-12 10:43:00,
2013-06-12 03:53:00,52.0,48.0,30.12,SE,146,4.0,8.0,85,0.00,,,0.00,,2013-06-12 10:53:00,
2013-06-12 04:01:00,52.0,48.0,30.12,SE,146,4.0,8.0,85,0.00,,,0.00,,2013-06-12 11:01:00,
2013-06-12 04:12:00,52.0,48.0,30.12,SE,146,4.0,8.0,85,0.00,,,0.00,,2013-06-12 11:12:00,
2013-06-12 04:24:00,52.0,48.0,30.12,SW,222,6.0,9.0,85,0.00,,,0.00,,2013-06-12 11:24:00,
2013-06-12 04:33:00,52.0,48.0,30.12,SW,222,6.0,9.0,85,0.00,,,0.00,,2013-06-12 11:33:00,
2013-06-12 04:43:00,52.0,48.0,30.12,SW,222,6.0,9.0,85,0.00,,,0.00,,2013-06-12 11:43:00,
2013-06-12 04:53:00,52.0,48.0,30.12,SW,214,5.0,9.0,85,0.00,,,0.00,,2013-06-12 11:53:00,
2013-06-12 05:01:00,52.0,48.0,30.12,SW,214,5.0,9.0,85,0.00,,,0.00,,2013-06-12 12:01:00,
2013-06-12 05:11:00,52.0,48.0,30.12,SW,214,5.0,9.0,85,0.00,,,0.00,,2013-06-12 12:11:00,
2013-06-12 05:23:00,52.0,48.0,30.12,South,181,5.0,9.0,85,0.00,,,0.00,,2013-06-12 12:23:00,
2013-06-12 05:33:00,52.0,48.0,30.12,South,181,5.0,9.0,85,0.00,,,0.00,,2013-06-12 12:33:00,
2013-06-12 05:43:00,52.0,48.0,30.12,South,181,5.0,9.0,85,0.00,,,0.00,,2013-06-12 12:43:00,
2013-06-12 05:53:00,52.0,48.0,30.13,SSW,208,4.0,11.0,86,0.00,,,0.00,,2013-06-12 12:53:00,
2013-06-12 06:01:00,52.0,48.0,30.13,SSW,208,4.0,11.0,86,0.00,,,0.00,,2013-06-12 13:01:00,
2013-06-12 06:11:00,52.0,48.0,30.13,SSW,208,4.0,11.0,86,0.00,,,0.00,,2013-06-12 13:11:00,
2013-06-12 06:22:00,52.0,48.0,30.13,SSW,208,4.0,11.0,86,0.00,,,0.00,,2013-06-12 13:22:00,
2013-06-12 06:32:00,52.0,48.0,30.13,SSW,208,4.0,11.0,86,0.00,,,0.00,,2013-06-12 13:32:00,
2013-06-12 06:33:00,52.0,48.0,30.13,SW,215,6.0,10.0,85,0.00,,,0.00,,2013-06-12 13:33:00,
2013-06-12 06:53:00,52.0,48.0,30.13,SW,215,6.0,10.0,85,0.00,,,0.00,,2013-06-12 13:53:00,
2013-06-12 07:01:00,52.0,48.0,30.13,SW,215,6.0,10.0,85,0.00,,,0.00,,2013-06-12 14:01:00,
2013-06-12 07:11:00,52.0,48.0,30.13,SW,215,6.0,10.0,85,0.00,,,0.00,,2013-06-12 14:11:00,
2013-06-12 07:23:00,52.0,48.0,30.13,SW,215,6.0,10.0,85,0.00,,,0.00,,2013-06-12 14:23:00,
2013-06-12 07:53:00,53.0,48.0,30.13,South,170,6.0,10.0,82,0.00,,,0.00,,2013-06-12 14:53:00,
2013-06-12 08:01:00,53.0,48.0,30.13,South,170,6.0,10.0,82,0.00,,,0.00,,2013-06-12 15:01:00,
2013-06-12 08:12:00,53.0,48.0,30.13,South,170,6.0,10.0,82,0.00,,,0.00,,2013-06-12 15:12:00,
2013-06-12 08:23:00,54.0,48.0,30.13,WSW,237,6.0,12.0,81,0.00,,,0.00,,2013-06-12 15:23:00,
2013-06-12 08:32:00,54.0,48.0,30.13,WSW,237,6.0,12.0,81,0.00,,,0.00,,2013-06-12 15:32:00,
2013-06-12 08:43:00,54.0,48.0,30.13,WSW,237,6.0,12.0,81,0.00,,,0.00,,2013-06-12 15:43:00,
2013-06-12 08:52:00,54.0,48.0,30.13,WSW,237,6.0,12.0,81,0.00,,,0.00,,2013-06-12 15:52:00,
2013-06-12 09:01:00,54.0,48.0,30.13,WSW,237,6.0,12.0,81,0.00,,,0.00,,2013-06-12 16:01:00,
2013-06-12 09:22:00,55.0,48.0,30.13,South,177,10.0,15.0,76,0.00,,,0.00,,2013-06-12 16:22:00,
2013-06-12 09:33:00,55.0,48.0,30.13,South,177,10.0,15.0,76,0.00,,,0.00,,2013-06-12 16:33:00,
2013-06-12 09:43:00,55.0,48.0,30.13,South,177,10.0,15.0,76,0.00,,,0.00,,2013-06-12 16:43:00,
2013-06-12 09:52:00,56.0,48.0,30.13,WSW,255,7.0,11.0,75,0.00,,,0.00,,2013-06-12 16:52:00,
2013-06-12 10:01:00,56.0,48.0,30.13,WSW,255,7.0,11.0,75,0.00,,,0.00,,2013-06-12 17:01:00,
2013-06-12 10:11:00,56.0,48.0,30.13,WSW,255,7.0,11.0,75,0.00,,,0.00,,2013-06-12 17:11:00,
2013-06-12 10:22:00,56.0,48.0,30.13,SW,215,4.0,12.0,74,0.00,,,0.00,,2013-06-12 17:22:00,
2013-06-12 10:32:00,56.0,48.0,30.13,SW,215,4.0,12.0,74,0.00,,,0.00,,2013-06-12 17:32:00,
2013-06-12 10:42:00,56.0,48.0,30.13,SW,215,4.0,12.0,74,0.00,,,0.00,,2013-06-12 17:42:00,
2013-06-12 10:52:00,58.0,48.0,30.13,SSE,158,6.0,10.0,69,0.00,,,0.00,,2013-06-12 17:52:00,
2013-06-12 11:02:00,58.0,48.0,30.13,SSE,158,6.0,10.0,69,0.00,,,0.00,,2013-06-12 18:02:00,
2013-06-12 11:12:00,58.0,48.0,30.13,SSE,158,6.0,10.0,69,0.00,,,0.00,,2013-06-12 18:12:00,
2013-06-12 11:22:00,60.0,49.0,30.13,SSW,212,5.0,10.0,66,0.00,,,0.00,,2013-06-12 18:22:00,
2013-06-12 11:32:00,60.0,49.0,30.13,SSW,212,5.0,10.0,66,0.00,,,0.00,,2013-06-12 18:32:00,
2013-06-12 11:43:00,60.0,49.0,30.13,SSW,212,5.0,10.0,66,0.00,,,0.00,,2013-06-12 18:43:00,
2013-06-12 11:53:00,60.0,47.0,30.13,SSW,201,5.0,9.0,63,0.00,,,0.00,,2013-06-12 18:53:00,
2013-06-12 12:01:00,60.0,47.0,30.13,SSW,201,5.0,9.0,63,0.00,,,0.00,,2013-06-12 19:01:00,
2013-06-12 12:11:00,60.0,47.0,30.13,SSW,201,5.0,9.0,63,0.00,,,0.00,,2013-06-12 19:11:00,
2013-06-12 12:22:00,60.0,47.0,30.13,SSW,201,5.0,9.0,63,0.00,,,0.00,,2013-06-12 19:22:00,
2013-06-12 12:32:00,60.0,47.0,30.13,SSW,201,5.0,9.0,63,0.00,,,0.00,,2013-06-12 19:32:00,
2013-06-12 12:52:00,61.0,47.0,30.12,West,278,6.0,10.0,61,0.00,,,0.00,,2013-06-12 19:52:00,
2013-06-12 13:01:00,61.0,47.0,30.12,West,278,6.0,10.0,61,0.00,,,0.00,,2013-06-12 20:01:00,
2013-06-12 13:11:00,61.0,47.0,30.12,West,278,6.0,10.0,61,0.00,,,0.00,,2013-06-12 20:11:00,
2013-06-12 13:21:00,62.0,47.0,30.12,SW,228,7.0,13.0,58,0.00,,,0.00,,2013-06-12 20:21:00,
2013-06-12 13:32:00,62.0,47.0,30.12,SW,228,7.0,13.0,58,0.00,,,0.00,,2013-06-12 20:32:00,
2013-06-12 13:43:00,62.0,47.0,30.12,SW,228,7.0,13.0,58,0.00,,,0.00,,2013-06-12 20:43:00,
2013-06-12 13:54:00,64.0,47.0,30.12,SW,226,7.0,13.0,55,0.00,,,0.00,,2013-06-12 20:54:00,
2013-06-12 14:01:00,64.0,47.0,30.12,SW,226,7.0,13.0,55,0.00,,,0.00,,2013-06-12 21:01:00,
2013-06-12 14:11:00,64.0,47.0,30.12,SW,226,7.0,13.0,55,0.00,,,0.00,,2013-06-12 21:11:00,
2013-06-12 14:21:00,64.0,47.0,30.11,WSW,257,8.0,13.0,53,0.00,,,0.00,,2013-06-12 21:21:00,
2013-06-12 14:33:00,64.0,47.0,30.11,WSW,257,8.0,13.0,53,0.00,,,0.00,,2013-06-12 21:33:00,
2013-06-12 14:43:00,64.0,47.0,30.11,WSW,257,8.0,13.0,53,0.00,,,0.00,,2013-06-12 21:43:00,
2013-06-12 14:53:00,64.0,47.0,30.11,WSW,257,8.0,13.0,53,0.00,,,0.00,,2013-06-12 21:53:00,
2013-06-12 15:01:00,64.0,47.0,30.11,WSW,257,8.0,13.0,53,0.00,,,0.00,,2013-06-12 22:01:00,
2013-06-12 15:22:00,64.0,47.0,30.11,SW,236,8.0,15.0,53,0.00,,,0.00,,2013-06-12 22:22:00,
2013-06-12 15:33:00,64.0,47.0,30.11,SW,236,8.0,15.0,53,0.00,,,0.00,,2013-06-12 22:33:00,
2013-06-12 15:43:00,64.0,47.0,30.11,SW,236,8.0,15.0,53,0.00,,,0.00,,2013-06-12 22:43:00,
2013-06-12 15:52:00,63.0,48.0,30.11,West,264,10.0,16.0,58,0.00,,,0.00,,2013-06-12 22:52:00,
2013-06-12 16:01:00,63.0,48.0,30.11,West,264,10.0,16.0,58,0.00,,,0.00,,2013-06-12 23:01:00,
2013-06-12 16:11:00,63.0,48.0,30.11,West,264,10.0,16.0,58,0.00,,,0.00,,2013-06-12 23:11:00,
2013-06-12 16:22:00,64.0,46.0,30.11,SSW,208,11.0,16.0,52,0.00,,,0.00,,2013-06-12 23:22:00,
2013-06-12 16:32:00,64.0,46.0,30.11,SSW,208,11.0,16.0,52,0.00,,,0.00,,2013-06-12 23:32:00,
2013-06-12 16:42:00,64.0,46.0,30.11,SSW,208,11.0,16.0,52,0.00,,,0.00,,2013-06-12 23:42:00,
2013-06-12 16:52:00,63.0,48.0,30.11,SW,233,8.0,15.0,57,0.00,,,0.00,,2013-06-12 23:52:00,
2013-06-12 17:01:00,63.0,48.0,30.11,SW,233,8.0,15.0,57,0.00,,,0.00,,2013-06-13 00:01:00,
2013-06-12 17:11:00,63.0,48.0,30.11,SW,233,8.0,15.0,57,0.00,,,0.00,,2013-06-13 00:11:00,
2013-06-12 17:22:00,64.0,48.0,30.11,WSW,240,10.0,17.0,57,0.00,,,0.00,,2013-06-13 00:22:00,
2013-06-12 17:32:00,64.0,48.0,30.11,WSW,240,10.0,17.0,57,0.00,,,0.00,,2013-06-13 00:32:00,
2013-06-12 17:43:00,64.0,48.0,30.11,WSW,240,10.0,17.0,57,0.00,,,0.00,,2013-06-13 00:43:00,
2013-06-12 17:52:00,61.0,46.0,30.11,WSW,253,11.0,18.0,58,0.00,,,0.00,,2013-06-13 00:52:00,
2013-06-12 18:01:00,61.0,46.0,30.11,WSW,253,11.0,18.0,58,0.00,,,0.00,,2013-06-13 01:01:00,
2013-06-12 18:11:00,61.0,46.0,30.11,WSW,253,11.0,18.0,58,0.00,,,0.00,,2013-06-13 01:11:00,
2013-06-12 18:22:00,61.0,49.0,30.11,SW,215,7.0,14.0,64,0.00,,,0.00,,2013-06-13 01:22:00,
2013-06-12 18:32:00,61.0,49.0,30.11,SW,215,7.0,14.0,64,0.00,,,0.00,,2013-06-13 01:32:00,
2013-06-12 18:43:00,61.0,49.0,30.11,SW,215,7.0,14.0,64,0.00,,,0.00,,2013-06-13 01:43:00,
2013-06-12 18:53:00,60.0,48.0,30.11,WSW,252,7.0,12.0,64,0.00,,,0.00,,2013-06-13 01:53:00,
2013-06-12 19:01:00,60.0,48.0,30.11,WSW,252,7.0,12.0,64,0.00,,,0.00,,2013-06-13 02:01:00,
2013-06-12 19:11:00,60.0,48.0,30.11,WSW,252,7.0,12.0,64,0.00,,,0.00,,2013-06-13 02:11:00,
2013-06-12 19:22:00,59.0,49.0,30.11,WSW,242,6.0,12.0,69,0.00,,,0.00,,2013-06-13 02:22:00,
2013-06-12 19:32:00,59.0,49.0,30.11,WSW,242,6.0,12.0,69,0.00,,,0.00,,2013-06-13 02:32:00,
2013-06-12 19:43:00,59.0,49.0,30.11,WSW,242,6.0,12.0,69,0.00,,,0.00,,2013-06-13 02:43:00,
2013-06-12 19:52:00,60.0,49.0,30.11,SSE,163,3.0,8.0,68,0.00,,,0.00,,2013-06-13 02:52:00,
2013-06-12 20:01:00,60.0,49.0,30.11,SSE,163,3.0,8.0,68,0.00,,,0.00,,2013-06-13 03:01:00,
2013-06-12 20:11:00,60.0,49.0,30.11,SSE,163,3.0,8.0,68,0.00,,,0.00,,2013-06-13 03:11:00,
2013-06-12 20:22:00,60.0,49.0,30.11,SSE,163,3.0,8.0,68,0.00,,,0.00,,2013-06-13 03:22:00,
2013-06-12 20:32:00,60.0,49.0,30.11,SSE,163,3.0,8.0,68,0.00,,,0.00,,2013-06-13 03:32:00,
2013-06-12 20:52:00,58.0,49.0,30.12,SSE,165,3.0,10.0,71,0.00,,,0.00,,2013-06-13 03:52:00,
2013-06-12 21:01:00,58.0,49.0,30.12,SSE,165,3.0,10.0,71,0.00,,,0.00,,2013-06-13 04:01:00,
2013-06-12 21:11:00,58.0,49.0,30.12,SSE,165,3.0,10.0,71,0.00,,,0.00,,2013-06-13 04:11:00,
2013-06-12 21:22:00,57.0,49.0,30.12,WSW,245,6.0,13.0,75,0.00,,,0.00,,2013-06-13 04:22:00,
2013-06-12 21:32:00,57.0,49.0,30.12,WSW,245,6.0,13.0,75,0.00,,,0.00,,2013-06-13 04:32:00,
2013-06-12 21:43:00,57.0,49.0,30.12,WSW,245,6.0,13.0,75,0.00,,,0.00,,2013-06-13 04:43:00,
2013-06-12 21:53:00,55.0,50.0,30.14,SW,221,4.0,11.0,83,0.00,,,0.00,,2013-06-13 04:53:00,
2013-06-12 22:01:00,55.0,50.0,30.14,SW,221,4.0,11.0,83,0.00,,,0.00,,2013-06-13 05:01:00,
2013-06-12 22:11:00,55.0,50.0,30.14,SW,221,4.0,11.0,83,0.00,,,0.00,,2013-06-13 05:11:00,
2013-06-12 22:23:00,55.0,51.0,30.14,SSW,192,4.0,7.0,86,0.01,,,0.01,,2013-06-13 05:23:00,
2013-06-12 22:32:00,55.0,51.0,30.14,SSW,192,4.0,7.0,86,0.01,,,0.01,,2013-06-13 05:32:00,
2013-06-12 22:33:00,54.0,50.0,30.14,South,174,4.0,6.0,85,0.01,,,0.01,,2013-06-13 05:33:00,
2013-06-12 22:43:00,55.0,51.0,30.14,SSW,192,4.0,7.0,86,0.01,,,0.01,,2013-06-13 05:43:00,
2013-06-12 22:53:00,54.0,50.0,30.14,South,174,4.0,6.0,85,0.01,,,0.01,,2013-06-13 05:53:00,
2013-06-12 23:01:00,54.0,50.0,30.14,South,174,4.0,6.0,85,0.01,,,0.01,,2013-06-13 06:01:00,
2013-06-12 23:11:00,54.0,50.0,30.14,South,174,4.0,6.0,85,0.01,,,0.01,,2013-06-13 06:11:00,
2013-06-12 23:22:00,54.0,50.0,30.14,South,174,4.0,6.0,85,0.01,,,0.01,,2013-06-13 06:22:00,